Theta_e
345 341 342 341 342 343 344 341 337 331 328 327 326 324 322 323 325 326 326 325 325 325 329 334 337 338 337 334 331 328 326 327 330 330 332 335 337 340 342 341 338 337 337
344 342 341 342 342 343 344 342 339 335 330 327 327 325 323 324 325 324 323 323 323 326 330 333 335 332 327 326 324 324 325 326 328 330 333 336 338 340 342 342 337 337 336
342 342 340 342 343 343 343 343 341 338 332 329 327 326 324 325 324 324 324 324 325 329 331 334 334 330 324 324 323 324 324 326 333 332 332 335 339 340 341 337 336 336 336
342 341 340 340 342 343 343 343 342 340 337 332 329 328 326 325 325 326 326 325 325 328 330 333 335 332 324 323 325 324 324 333 338 339 336 333 337 338 337 335 335 336 336
345 342 340 339 339 340 342 342 342 341 341 336 331 329 328 326 327 326 326 327 328 330 333 335 335 331 324 324 325 324 326 335 337 339 339 335 334 335 335 335 335 335 335
351 343 342 340 339 339 339 339 340 340 341 340 336 331 329 327 327 327 327 329 329 333 336 336 334 332 325 324 324 325 326 334 337 338 337 336 332 334 334 334 337 337 335
351 349 345 343 342 340 339 339 339 339 340 341 340 336 331 329 327 328 327 329 331 331 333 334 333 333 327 325 325 325 327 330 336 338 338 336 332 334 336 336 337 335 335
349 349 348 347 343 341 340 339 338 338 338 339 340 340 336 331 329 328 328 329 332 334 335 336 335 334 328 326 326 325 328 334 336 337 336 335 333 335 336 336 335 334 334
351 351 349 347 345 342 341 339 338 338 338 339 341 341 339 335 330 329 330 330 332 332 333 333 332 331 328 327 327 326 329 335 337 336 335 333 331 332 338 334 334 334 333
352 352 353 353 345 342 341 340 339 339 339 339 341 342 341 340 333 331 330 331 331 332 331 332 331 330 327 327 328 326 328 330 336 337 335 333 333 331 334 333 333 333 332
354 353 354 354 351 341 340 340 339 339 339 340 342 342 342 340 337 334 332 332 333 333 332 332 331 329 327 327 328 327 328 330 334 336 336 334 333 332 333 333 332 331 330
347 354 355 355 353 350 346 341 340 339 337 338 347 349 344 342 341 339 336 334 334 334 333 333 332 330 329 327 328 329 330 329 331 335 336 335 333 332 333 332 331 331 328
334 335 339 348 352 352 349 347 346 346 346 342 336 340 346 343 344 342 340 337 336 337 336 335 334 333 331 327 327 329 330 329 330 334 335 335 333 334 334 330 329 329 329
334 335 337 336 337 343 349 348 348 347 347 346 345 342 340 342 343 344 344 341 339 338 337 336 334 333 332 328 325 328 330 328 329 333 335 334 333 334 336 330 329 328 327
327 329 330 334 336 336 341 345 348 348 348 347 346 346 344 343 342 343 344 344 343 342 339 337 336 334 333 330 328 328 328 329 330 333 334 334 332 333 333 330 328 326 325
326 325 325 325 329 335 339 344 348 348 348 348 346 346 346 345 344 345 344 343 344 342 341 339 337 335 334 332 327 333 332 329 331 333 334 332 330 331 332 331 328 325 323
317 317 318 319 323 323 328 333 339 341 343 342 342 343 342 341 340 341 341 342 341 341 341 339 338 336 334 332 329 331 333 331 331 333 333 331 330 329 329 329 326 323 322
313 312 311 312 315 320 322 322 325 328 331 334 336 338 339 340 340 340 340 340 341 340 340 340 337 334 334 332 331 331 333 334 333 334 332 330 329 330 328 327 323 321 321
311 311 311 311 311 311 312 313 316 317 317 317 318 323 329 333 335 336 338 339 338 339 339 339 337 333 332 332 332 332 333 334 333 333 332 329 328 329 327 325 322 320 319
311 311 310 310 310 311 310 312 310 311 311 311 314 318 319 316 316 323 329 332 336 337 338 338 338 334 332 332 332 332 333 333 333 333 330 328 328 328 326 323 321 319 318
309 310 310 310 309 310 309 310 310 311 310 311 313 318 317 316 316 316 314 321 331 335 336 338 337 334 332 331 332 331 332 331 332 332 329 328 327 326 325 322 320 319 318
309 309 309 308 308 309 308 308 309 308 309 310 311 310 311 313 317 316 314 314 316 324 333 336 336 334 332 331 331 326 321 319 323 329 328 327 327 324 323 322 320 319 318
309 308 307 307 307 306 306 306 307 307 307 308 308 308 308 310 312 312 317 315 316 314 319 322 330 333 332 331 329 324 318 326 318 319 324 325 325 323 322 321 320 319 319
307 306 305 305 305 305 305 305 304 305 306 307 307 306 306 307 307 307 310 317 316 317 315 314 318 323 329 329 326 327 323 319 321 316 312 322 324 323 321 320 320 319 319
305 304 304 304 305 304 304 303 303 304 304 305 304 305 305 305 307 309 311 314 316 317 317 313 313 313 317 324 326 323 320 318 321 318 320 312 317 323 321 321 319 319 318
304 304 304 304 303 303 303 303 302 303 303 302 302 304 304 305 305 307 309 311 313 314 316 317 315 312 312 312 314 322 322 318 317 318 319 318 319 317 320 320 318 318 317
Wind_Speed
13 22 21 19 20 20 20 19 19 18 18 16 14 13 13 14 14 15 16 16 16 16 16 15 13 10 7 7 7 8 8 10 11 13 16 18 18 18 16 14 15 18 16
18 24 21 20 20 20 19 18 17 16 16 15 14 14 14 14 14 15 15 15 15 15 14 13 12 10 8 8 8 9 9 10 11 13 17 18 16 15 13 11 14 16 17
22 25 21 20 20 20 20 18 17 15 15 15 15 14 14 14 14 15 15 14 13 13 12 12 10 9 8 9 9 10 12 13 15 17 15 16 16 15 15 10 13 14 15
20 25 23 20 18 19 19 19 17 16 15 15 15 15 15 14 14 14 14 14 14 13 13 12 10 8 7 9 10 12 12 16 19 18 14 14 15 12 12 11 12 13 14
17 23 22 21 20 19 18 17 17 17 17 16 17 17 16 15 15 14 14 14 14 13 13 12 11 9 8 9 10 12 13 13 13 8 7 11 13 13 12 13 13 11 13
16 17 20 21 20 20 19 17 16 16 16 17 18 18 18 18 16 16 14 14 15 13 12 12 11 9 9 11 11 12 12 11 11 9 20 12 10 12 12 13 14 13 12
19 13 15 18 19 20 19 19 17 16 16 17 18 20 20 20 19 18 17 16 15 14 14 13 11 10 10 11 11 13 13 13 10 8 16 13 13 12 11 11 15 13 13
15 14 13 12 16 18 19 18 17 16 16 16 18 21 22 22 21 20 20 18 16 15 14 14 12 11 12 13 12 13 14 13 8 15 13 9 10 12 12 12 12 13 13
11 12 11 10 13 16 16 15 14 14 14 13 15 19 22 22 23 22 20 20 19 18 17 17 15 14 14 15 15 15 15 14 10 13 13 8 9 12 13 12 13 13 13
12 11 10 7 9 17 16 15 14 13 13 13 14 16 19 21 23 24 24 24 23 21 19 19 17 16 16 17 17 17 17 17 14 9 17 12 13 14 15 13 13 14 14
11 10 7 7 6 11 13 13 14 13 13 13 15 17 19 21 23 24 26 25 24 22 21 21 20 19 18 19 20 20 19 20 18 11 20 17 17 17 19 16 14 14 14
9 3 7 8 6 6 7 9 10 12 14 15 16 18 20 23 23 25 26 26 26 26 25 24 22 20 20 22 23 23 23 23 21 14 20 23 21 21 22 19 16 14 13
25 25 21 4 10 7 7 9 11 12 12 14 19 20 21 23 24 25 27 29 30 27 28 26 25 25 25 25 26 26 26 25 24 16 19 26 26 23 23 22 19 16 15
28 26 26 20 16 3 7 13 12 13 13 12 14 17 22 23 25 26 27 29 32 34 33 32 31 31 30 29 29 29 29 29 27 23 19 28 28 25 24 23 21 20 17
28 28 26 23 23 16 7 5 15 11 14 14 16 19 22 26 27 28 32 33 35 36 36 35 35 36 35 32 31 31 30 32 30 26 21 31 30 28 26 24 23 20 16
29 29 27 26 25 21 19 16 5 10 12 12 16 23 20 27 30 30 33 34 35 35 39 40 41 41 39 35 34 34 32 31 33 28 27 32 31 30 30 27 25 21 18
28 26 27 27 27 29 25 21 18 14 9 8 8 13 18 22 25 29 30 32 33 36 35 39 43 38 35 35 36 37 36 33 34 32 29 34 33 32 33 31 28 24 20
26 25 24 23 24 24 25 27 23 21 18 17 17 16 14 15 18 21 25 33 36 36 39 36 39 38 39 40 41 42 40 37 37 34 33 36 37 37 33 32 28 25 26
23 22 23 25 23 23 20 21 21 21 20 21 21 19 20 20 20 23 25 27 29 35 39 37 36 35 34 37 41 40 43 41 40 34 34 38 41 40 38 34 28 29 29
20 20 21 22 24 21 22 20 21 21 22 23 23 23 22 24 23 22 22 26 29 30 32 32 35 35 38 38 35 35 40 43 41 37 37 40 44 43 41 38 32 31 31
19 20 22 21 22 21 25 26 26 25 25 23 23 23 25 28 27 26 27 24 22 27 30 33 36 38 36 34 30 26 29 32 40 38 39 43 41 45 43 39 38 36 33
16 14 16 19 21 21 24 23 23 26 22 21 22 26 27 28 30 31 30 28 25 24 26 32 36 33 38 40 25 12 3 8 24 36 40 42 43 41 45 44 41 40 39
15 16 16 18 20 21 25 27 28 25 23 24 28 28 27 28 29 33 33 28 26 23 24 26 22 38 23 29 36 11 3 6 3 15 33 37 38 37 38 44 44 43 42
16 16 17 18 18 22 24 26 28 27 25 28 30 31 32 32 32 32 32 32 27 24 21 23 20 19 26 24 28 33 21 18 3 2 5 20 35 37 40 42 43 46 45
17 17 16 18 19 22 24 26 29 29 30 28 30 31 31 30 31 33 35 33 31 24 25 21 20 18 18 21 20 15 17 19 22 4 6 9 25 33 39 46 43 45 48
14 14 11 11 13 14 18 22 22 23 25 28 31 34 32 29 30 31 34 31 21 22 27 24 21 18 20 23 23 19 22 10 7 7 5 14 22 30 33 38 46 47 48
Wind_Direction
139 157 158 165 162 159 155 153 151 151 152 150 143 138 134 133 132 134 135 137 139 141 141 140 139 139 135 123 118 110 110 111 111 110 111 108 106 107 107 113 114 113 114
156 159 161 162 160 159 159 158 158 157 158 160 153 150 145 142 140 142 144 146 147 147 146 143 141 141 134 131 127 121 114 109 111 115 118 113 110 113 120 131 125 123 123
156 159 161 161 159 158 160 162 165 165 168 171 168 161 157 154 154 154 152 151 151 150 149 148 149 152 145 145 139 128 121 120 112 110 114 120 115 116 123 121 122 123 124
156 161 161 158 158 160 164 167 171 176 180 184 181 175 173 170 167 162 162 162 161 162 160 159 163 163 156 151 144 128 130 132 129 110 113 137 127 124 126 127 124 128 125
143 166 164 163 162 167 170 176 180 185 187 192 192 189 188 183 179 177 175 173 170 170 171 170 177 174 170 162 153 138 145 140 147 163 152 129 138 132 130 132 126 130 133
146 158 172 172 172 173 176 184 193 198 199 198 201 200 199 195 193 189 186 184 184 182 180 185 189 188 184 179 166 151 154 152 114 106 152 135 133 135 136 137 136 136 136
159 155 162 180 183 182 184 188 193 201 207 207 207 208 207 205 202 199 198 195 192 191 195 198 204 204 200 196 179 166 171 167 147 144 151 139 134 137 144 148 145 146 141
152 163 171 180 195 194 191 193 198 202 207 210 210 212 213 213 212 209 206 203 201 201 204 208 213 214 211 206 198 184 183 172 164 163 170 161 156 151 156 159 156 151 145
136 150 165 183 193 200 201 203 206 213 216 221 220 215 217 219 220 218 215 212 209 209 211 217 217 217 215 212 208 200 197 185 169 167 178 185 184 169 157 162 162 152 135
177 190 179 184 194 199 203 206 213 220 225 228 227 223 225 228 226 224 222 220 219 217 219 221 219 219 219 218 214 209 207 206 203 184 196 193 187 178 164 161 168 161 151
163 182 206 202 178 191 204 216 220 222 228 233 232 229 229 232 229 228 228 227 226 225 225 226 223 221 221 220 219 217 213 217 213 212 206 206 194 185 171 174 167 169 175
63 101 207 231 207 179 183 202 213 230 239 236 232 232 230 231 234 235 234 234 232 231 228 229 228 226 222 220 220 221 220 219 219 224 221 203 196 187 177 177 181 174 185
47 44 46 16 224 220 198 209 213 218 228 241 245 237 235 236 234 236 237 234 233 230 228 225 225 224 222 221 222 222 223 221 223 229 225 205 194 182 177 186 185 183 183
55 50 49 45 52 53 251 227 228 219 223 237 250 247 242 239 237 234 237 235 232 227 225 224 224 225 224 222 221 223 224 223 222 227 229 204 193 186 178 185 188 190 192
54 48 41 35 33 25 32 1 233 230 223 242 251 252 244 243 240 237 235 236 234 232 228 227 228 227 225 221 219 222 224 226 222 228 222 199 195 189 181 180 186 187 201
47 46 41 38 35 31 31 25 30 249 260 265 258 250 251 244 244 240 240 238 235 232 230 229 232 228 226 223 218 222 224 227 221 225 221 199 195 196 184 180 177 184 196
54 43 36 34 37 36 32 31 34 26 7 352 320 297 284 275 266 261 258 252 246 242 235 229 228 226 222 223 220 219 222 225 218 216 215 200 195 202 194 185 184 185 193
61 52 41 33 33 34 35 28 23 16 6 353 344 335 326 298 290 287 281 270 263 252 243 233 220 211 213 218 217 220 221 222 219 215 207 203 199 198 198 193 193 187 177
57 47 44 37 33 28 28 26 23 17 13 6 360 346 330 316 308 298 295 287 279 270 257 238 222 212 204 208 213 217 218 221 220 208 203 202 201 198 198 198 199 184 179
61 50 44 36 27 27 18 18 11 7 2 355 352 347 347 341 332 323 313 297 287 279 264 241 226 214 210 208 210 212 214 222 224 212 201 201 203 204 202 196 195 189 183
65 52 40 29 23 22 17 10 3 358 348 348 349 342 344 337 331 331 330 321 308 285 268 251 225 213 215 210 209 212 207 211 211 208 199 195 197 202 202 200 193 189 186
79 63 45 27 17 16 14 6 359 350 351 346 338 333 335 336 328 322 321 318 318 315 281 252 226 220 217 204 204 188 235 197 205 202 201 193 199 200 200 201 195 192 186
76 63 45 24 17 13 4 358 354 353 348 345 342 339 334 329 324 320 312 309 311 309 304 310 278 223 227 218 206 185 183 216 163 204 201 194 194 197 193 197 194 196 191
73 50 33 18 10 7 8 4 360 355 346 337 337 331 327 326 323 317 309 296 298 298 300 296 301 308 272 220 205 213 205 157 187 204 281 193 198 195 190 195 192 194 193
56 43 21 7 2 359 352 345 347 346 343 337 331 324 324 325 325 319 317 300 286 287 295 288 292 297 302 293 230 210 163 175 180 156 203 200 208 198 194 201 189 191 195
47 33 31 21 360 348 337 328 335 330 326 325 323 319 324 326 322 316 316 316 320 301 295 293 290 289 292 290 313 266 209 207 178 174 182 198 198 194 196 192 187 187 192